ICEYE-X7

导读 | 星芒AI

ICEYE-X7 是 ICEYE 公司发射的一颗合成孔径雷达(SAR)卫星,具备高分辨率成像能力,可在任何天气和光照条件下提供地球表面的实时图像。该卫星采用小型卫星平台,提高了任务灵活性和成本效益。ICEYE-X7 用于支持灾害监测、环境管理和国防安全等多种应用,增强了 ICEYE 卫星星座的全球覆盖能力与数据获取频率。

基本信息
目录编号:
46496
目录名称:
ICEYE-X7
国际标识:
2020-068L
轨道中心:
EARTH
卫星名称:
ICEYE-X7
卫星全名:
--
卫星状态:
在轨 (已飞行1904 天)
发射日期:
2020-09-28 UTC
国别 :
(FI)
星等 :
--
轨道信息
数据来源 国际轨道数据
星历时间: 2025-12-15T06:32:39+0800
20小时前
查看轨道信息
半长轴: 6864.39km
偏心率: 0.0006448
轨道倾角: 97.729°
近地点辐角 252.921°
升交点赤经 303.035°
平近点角 107.132°
近地点: 481.828km
远地点: 490.682km
周期: 94.333分钟
每日圈数: 15.265107
详细信息
使用方式:
暂无
2D轨道图
3D轨道图
轨道高度分析图
轨道倾角分析图
轨道综合分析图
查看轨道综合分析图